• In Hungary
  • List of Countries
  • For 7 days
  • Water Temperature
  • Satellite Maps
  • Weather Map
  • News
  • Weather Widgets
  • user-avatar
    Login

    Hourly Weather Mszalnica

    Today, 19 July, Thursday

    Time Temperature Precipitation Wind Pressure Humidity
    00:00 +18°C° 0.4 mm 4 mps 713 mmHg 97%
    01:00 +18°C° 0.4 mm 4 mps 714 mmHg 97%
    02:00 +18°C° 0.1 mm 4 mps 714 mmHg 97%
    03:00 +18°C° 0.1 mm 4 mps 714 mmHg 97%
    04:00 +18°C° 0.1 mm 4 mps 714 mmHg 97%
    05:00 +18°C° 0.2 mm 4 mps 714 mmHg 96%
    06:00 +18°C° 0.2 mm 4 mps 714 mmHg 95%
    07:00 +18°C° 0.2 mm 4 mps 715 mmHg 95%
    08:00 +18°C° 0.2 mm 4 mps 715 mmHg 93%
    09:00 +19°C° 0.2 mm 4 mps 715 mmHg 91%
    10:00 +19°C° 0.2 mm 4 mps 715 mmHg 90%
    11:00 +19°C° 0.1 mm 4 mps 715 mmHg 89%
    12:00 +19°C° 0.1 mm 4 mps 716 mmHg 88%
    13:00 +20°C° 0.1 mm 4 mps 716 mmHg 87%
    14:00 +20°C° 0.1 mm 4 mps 716 mmHg 87%
    15:00 +20°C° 0.1 mm 4 mps 716 mmHg 87%
    16:00 +19°C° 0.1 mm 4 mps 716 mmHg 87%
    17:00 +19°C° 0 mm 4 mps 716 mmHg 88%
    18:00 +18°C° 0 mm 4 mps 716 mmHg 89%
    19:00 +18°C° 0 mm 4 mps 716 mmHg 91%
    20:00 +17°C° 0 mm 3 mps 716 mmHg 92%
    21:00 +17°C° 0 mm 3 mps 716 mmHg 94%
    22:00 +17°C° 0 mm 3 mps 716 mmHg 96%
    23:00 +16°C° 0 mm 3 mps 716 mmHg 96%

    Tomorrow, 20 July, Friday

    Time Temperature Precipitation Wind Pressure Humidity
    00:00 +16°C° 0 mm 3 mps 716 mmHg 96%
    01:00 +16°C° 0 mm 2 mps 716 mmHg 97%
    02:00 +16°C° 0.1 mm 2 mps 716 mmHg 96%
    03:00 +17°C° 0.1 mm 2 mps 716 mmHg 96%
    04:00 +17°C° 0.1 mm 2 mps 716 mmHg 96%
    05:00 +17°C° 0.3 mm 2 mps 716 mmHg 96%
    06:00 +17°C° 0.3 mm 2 mps 716 mmHg 96%
    07:00 +17°C° 0.3 mm 2 mps 716 mmHg 95%
    08:00 +17°C° 0.4 mm 2 mps 717 mmHg 95%
    09:00 +17°C° 0.4 mm 3 mps 717 mmHg 95%
    10:00 +17°C° 0.4 mm 3 mps 717 mmHg 94%
    11:00 +19°C° 0.1 mm 3 mps 717 mmHg 89%
    12:00 +20°C° 0.1 mm 3 mps 717 mmHg 84%
    13:00 +21°C° 0.1 mm 4 mps 717 mmHg 78%
    14:00 +21°C° 0 mm 4 mps 717 mmHg 74%
    15:00 +22°C° 0 mm 4 mps 717 mmHg 70%
    16:00 +23°C° 0 mm 4 mps 717 mmHg 66%
    17:00 +22°C° 0.1 mm 3 mps 716 mmHg 73%
    18:00 +20°C° 0.1 mm 2 mps 716 mmHg 79%
    19:00 +19°C° 0.1 mm 2 mps 716 mmHg 86%
    20:00 +18°C° 0 mm 2 mps 717 mmHg 88%
    21:00 +17°C° 0 mm 2 mps 717 mmHg 91%
    22:00 +16°C° 0 mm 2 mps 717 mmHg 94%
    23:00 +16°C° 0 mm 1 mps 717 mmHg 95%

    Day after tomorrow, 21 July, Saturday

    Time Temperature Precipitation Wind Pressure Humidity
    00:00 +15°C° 0 mm 1 mps 717 mmHg 95%
    01:00 +15°C° 0 mm 1 mps 716 mmHg 95%
    02:00 +15°C° 0 mm 1 mps 716 mmHg 95%
    03:00 +15°C° 0 mm 1 mps 716 mmHg 95%
    04:00 +14°C° 0 mm 1 mps 716 mmHg 95%
    05:00 +16°C° 0 mm 1 mps 716 mmHg 90%
    06:00 +19°C° 0 mm 1 mps 717 mmHg 86%
    07:00 +21°C° 0 mm 1 mps 717 mmHg 81%
    08:00 +22°C° 0 mm 1 mps 717 mmHg 75%
    09:00 +23°C° 0 mm 1 mps 717 mmHg 70%
    10:00 +25°C° 0 mm 1 mps 717 mmHg 65%
    11:00 +25°C° 0.2 mm 1 mps 717 mmHg 63%
    12:00 +26°C° 0.2 mm 1 mps 717 mmHg 61%
    13:00 +26°C° 0.2 mm 1 mps 717 mmHg 59%
    14:00 +26°C° 0.5 mm 1 mps 717 mmHg 62%
    15:00 +26°C° 0.5 mm 1 mps 716 mmHg 65%
    16:00 +25°C° 0.5 mm 1 mps 716 mmHg 68%
    17:00 +24°C° 0.4 mm 1 mps 716 mmHg 73%
    18:00 +23°C° 0.4 mm 1 mps 716 mmHg 78%
    19:00 +21°C° 0.4 mm 1 mps 716 mmHg 83%
    20:00 +20°C° 0 mm 1 mps 716 mmHg 85%
    21:00 +19°C° 0 mm 1 mps 716 mmHg 87%
    22:00 +18°C° 0 mm 1 mps 716 mmHg 89%
    23:00 +18°C° 0 mm 1 mps 715 mmHg 90%

    22 July, Sunday

    Time Temperature Precipitation Wind Pressure Humidity
    00:00 +16°C° 0 mm 0 mps 715 mmHg 91%
    01:00 +15°C° 0 mm 0 mps 715 mmHg 92%
    02:00 +15°C° 0.1 mm 0 mps 715 mmHg 93%
    03:00 +15°C° 0.1 mm 0 mps 715 mmHg 93%
    04:00 +14°C° 0.1 mm 0 mps 715 mmHg 93%
    05:00 +16°C° 0 mm 0 mps 715 mmHg 91%
    06:00 +17°C° 0 mm 0 mps 715 mmHg 88%
    07:00 +21°C° 0 mm 1 mps 715 mmHg 85%
    08:00 +22°C° 0.3 mm 1 mps 715 mmHg 81%
    09:00 +23°C° 0.3 mm 2 mps 715 mmHg 77%
    10:00 +24°C° 0.3 mm 2 mps 715 mmHg 74%
    11:00 +24°C° 1 mm 2 mps 715 mmHg 75%
    12:00 +24°C° 1 mm 2 mps 715 mmHg 76%
    13:00 +24°C° 1 mm 2 mps 715 mmHg 78%
    14:00 +23°C° 0.8 mm 2 mps 715 mmHg 79%
    15:00 +23°C° 0.8 mm 2 mps 714 mmHg 79%
    16:00 +23°C° 0.8 mm 1 mps 714 mmHg 80%
    17:00 +22°C° 0.3 mm 1 mps 714 mmHg 82%
    18:00 +21°C° 0.3 mm 1 mps 714 mmHg 84%
    19:00 +20°C° 0.3 mm 1 mps 714 mmHg 86%
    20:00 +20°C° 0.1 mm 1 mps 714 mmHg 87%
    21:00 +19°C° 0.1 mm 1 mps 715 mmHg 87%
    22:00 +18°C° 0.1 mm 1 mps 715 mmHg 87%
    23:00 +18°C° 0 mm 1 mps 715 mmHg 88%

    23 July, Monday

    Time Temperature Precipitation Wind Pressure Humidity
    00:00 +16°C° 0 mm 1 mps 714 mmHg 89%
    01:00 +16°C° 0 mm 2 mps 714 mmHg 90%
    02:00 +15°C° 0 mm 2 mps 715 mmHg 91%
    03:00 +15°C° 0 mm 1 mps 715 mmHg 92%
    04:00 +14°C° 0 mm 1 mps 715 mmHg 93%
    05:00 +16°C° 0 mm 2 mps 715 mmHg 90%
    06:00 +17°C° 0 mm 2 mps 716 mmHg 87%
    07:00 +18°C° 0 mm 2 mps 716 mmHg 85%
    08:00 +19°C° 0 mm 3 mps 716 mmHg 77%
    09:00 +21°C° 0 mm 3 mps 716 mmHg 70%
    10:00 +22°C° 0 mm 4 mps 717 mmHg 62%
    11:00 +23°C° 0 mm 4 mps 717 mmHg 61%
    12:00 +25°C° 0 mm 4 mps 716 mmHg 59%
    13:00 +25°C° 0 mm 4 mps 716 mmHg 57%
    14:00 +25°C° 0.1 mm 4 mps 716 mmHg 59%
    15:00 +25°C° 0.1 mm 4 mps 717 mmHg 60%
    16:00 +25°C° 0.1 mm 4 mps 717 mmHg 61%
    17:00 +22°C° 0 mm 3 mps 717 mmHg 67%
    18:00 +21°C° 0 mm 3 mps 717 mmHg 73%
    19:00 +20°C° 0 mm 2 mps 717 mmHg 79%
    20:00 +19°C° 0 mm 2 mps 717 mmHg 83%
    21:00 +18°C° 0 mm 2 mps 717 mmHg 87%
    22:00 +17°C° 0 mm 2 mps 717 mmHg 91%
    23:00 +16°C° 0 mm 2 mps 718 mmHg 92%

    24 July, Tuesday

    Time Temperature Precipitation Wind Pressure Humidity
    00:00 +16°C° 0 mm 1 mps 718 mmHg 93%
    01:00 +15°C° 0 mm 1 mps 718 mmHg 94%
    02:00 +15°C° 0 mm 1 mps 718 mmHg 95%
    03:00 +15°C° 0 mm 1 mps 718 mmHg 95%
    04:00 +14°C° 0 mm 1 mps 718 mmHg 95%
    05:00 +16°C° 0 mm 1 mps 718 mmHg 90%
    06:00 +17°C° 0 mm 2 mps 719 mmHg 85%
    07:00 +19°C° 0 mm 2 mps 719 mmHg 80%
    08:00 +20°C° 0 mm 2 mps 719 mmHg 74%
    09:00 +22°C° 0 mm 3 mps 719 mmHg 68%
    10:00 +24°C° 0 mm 3 mps 720 mmHg 63%
    11:00 +24°C° 0 mm 3 mps 720 mmHg 62%
    12:00 +25°C° 0 mm 3 mps 719 mmHg 61%
    13:00 +26°C° 0 mm 3 mps 719 mmHg 59%
    14:00 +25°C° 0 mm 3 mps 719 mmHg 61%
    15:00 +25°C° 0 mm 3 mps 719 mmHg 62%
    16:00 +25°C° 0 mm 3 mps 719 mmHg 63%
    17:00 +24°C° 0 mm 2 mps 719 mmHg 70%
    18:00 +23°C° 0 mm 2 mps 719 mmHg 77%
    19:00 +20°C° 0 mm 2 mps 719 mmHg 83%
    20:00 +20°C° 0 mm 1 mps 719 mmHg 86%
    21:00 +19°C° 0 mm 1 mps 720 mmHg 89%
    22:00 +18°C° 0 mm 1 mps 720 mmHg 92%
    23:00 +18°C° 0 mm 1 mps 720 mmHg 92%
    Show more